Location: Edmonton
(53.5500°N, 113.5000°W)
Time: 08:13:48
(UTC-06:00)

ISS - Visible Passes

Search period start: 19 May 2022 00:00
Search period end: 29 May 2022 00:00
Orbit: 415 x 421 km, 51.6° (Epoch: 19 May)

Date Brightness Start Highest point End Pass type
(mag) Time Alt. Az. Time Alt. Az. Time Alt. Az.
19 May -2.7 01:29:42 10° W 01:31:57 30° WSW 01:31:57 30° WSW visible
19 May -3.8 23:05:04 10° WSW 23:08:23 63° S 23:11:42 10° E visible
20 May -3.5 00:41:45 10° W 00:44:58 44° SSW 00:45:29 41° SSE visible
20 May -3.7 22:17:09 10° WSW 22:20:28 59° S 22:23:46 10° E visible
20 May -3.6 23:53:48 10° W 23:57:05 53° SSW 23:59:01 22° ESE visible
21 May -1.7 01:30:49 10° W 01:31:54 16° WSW 01:31:54 16° WSW visible
21 May -3.7 23:05:50 10° W 23:09:09 60° S 23:12:28 10° ESE visible
22 May -2.7 00:42:40 10° W 00:45:26 28° SSW 00:45:26 28° SSW visible
22 May -3.1 23:54:36 10° W 23:57:43 36° SSW 23:58:59 26° SSE visible
23 May -3.3 23:06:34 10° W 23:09:48 45° SSW 23:12:31 13° SE visible
24 May -1.7 00:43:52 10° WSW 00:45:25 15° SW 00:45:25 15° SW visible
24 May -2.3 23:55:31 10° W 23:58:10 22° SSW 23:58:58 20° S visible
25 May -2.6 23:07:19 10° W 23:10:16 29° SSW 23:12:31 14° SSE visible
26 May -1.4 23:57:10 10° WSW 23:58:23 12° SW 23:59:00 11° SSW visible
27 May -1.7 23:08:19 10° WSW 23:10:31 16° SW 23:12:35 11° S visible
